Flag for U.S.A. Weather past 2 weeks in Lakewood, New Jersey, U.S.A.

Now
87 °F

Scattered clouds.


Feels Like: 88 °F
Forecast: 63 / 85 °F
Wind: N/A

Location: Lakehurst Naval Air Station

Current Time: May 30, 2015 at 3:36:58 PM

Latest Report: May 30, 2015 at 3:00 PM


Visibility: 10 mi

Pressure: 30.11 "Hg

Humidity: 46%

Dew point: 64 °F

Location of LakewoodLocation

Historic Weather in Lakewood — Graph

°F

Lakewood temperature yesterday

Maximum temperature yesterday: 79 °F (at 1:00 PM)
Minimum temperature yesterday: 56 °F (at 5:00 AM)
Average temperature yesterday: 70 °F

Past Weeks' High & Low Weather Summary

 TemperatureHumidityPressure
High89 °F (May 28, 2:00 PM)100% (May 17, 1:06 AM)30.43 "Hg (May 17, 1:06 AM)
Low44 °F (May 23, 2:00 AM)20% (May 23, 4:00 PM)29.78 "Hg (May 19, 11:00 PM)
Average67 °F70%30.13 "Hg
* Reported May 15 7:00 PM — May 30 2:00 PM, Lakewood, Weather by CustomWeather, © 2015

Note: Actual official high and low records may vary slightly from our data, if they occured in-between our weather recording intervals... More about our weather records

Advertising

Lakewood weather history for previous 24 hours

 ConditionsComfort  
Time TempWeatherWind HumidityBarometerVisibility
2:00 PM
Sat, May 30
86 °FPartly sunny.N/A48%30.13 "Hg10 mi
1:00 PM85 °FBroken clouds.N/A51%30.15 "Hg10 mi
12:00 PM85 °FScattered clouds.N/A48%30.17 "Hg10 mi
11:00 AM80 °FPassing clouds.N/A62%30.19 "Hg10 mi
10:00 AM79 °FPartly sunny.N/A67%30.20 "Hg10 mi
9:00 AM74 °FScattered clouds.N/A76%30.21 "Hg10 mi
8:00 AM71 °FSunny.N/A81%30.22 "Hg10 mi
7:00 AM64 °FPartly sunny.N/A97%30.21 "Hg9 mi
6:00 AM61 °FFog.N/A97%30.21 "Hg3 mi
5:00 AM61 °FClear.N/A97%30.20 "Hg7 mi
4:00 AM61 °FClear.N/A93%30.20 "Hg8 mi
3:00 AM60 °FClear.N/A96%30.20 "Hg8 mi
2:00 AM62 °FClear.N/A93%30.20 "Hg8 mi
1:00 AM63 °FClear.N/A97%30.21 "Hg10 mi
12:00 AM63 °FClear.N/A93%30.22 "Hg10 mi
11:00 PM
Fri, May 29
65 °FClear.N/A91%30.23 "Hg10 mi
10:00 PM67 °FClear.N/A85%30.24 "Hg10 mi
9:00 PM69 °FSunny.N/A79%30.23 "Hg10 mi
8:00 PM72 °FSunny.N/A68%30.22 "Hg10 mi
7:00 PM74 °FSunny.N/A57%30.22 "Hg10 mi
6:00 PM76 °FSunny.N/A52%30.22 "Hg10 mi
5:00 PM77 °FSunny.N/A52%30.23 "Hg10 mi
4:00 PM79 °FSunny.N/A47%30.24 "Hg10 mi
3:00 PM79 °FSunny.N/A47%30.26 "Hg10 mi
Weather by CustomWeather, © 2015

See weather overviewHow to use our weather pages